EW1042 Weather Reports


Display with metric or nautical units.
time (UTC)temp
F
wind
direction
speed
MPH
gust
MPH
rain 1hr
in
rain 24hr
in
rain mn
in
humidity
%
barometer
mb
20260509211533 59 208 5.0 13.0 0.00 0.00 0.00 68 1010.6
20260509210019 58 235 3.0 21.0 0.00 0.00 0.00 69 1010.6
20260509204513 57 187 4.0 14.0 0.00 0.00 0.00 70 1010.7
20260509203055 57 204 6.0 11.0 0.00 0.00 0.00 69 1011.0
20260509201559 57 169 3.0 9.0 0.00 0.00 0.00 69 1011.1
20260509200041 57 159 5.0 17.0 0.00 0.00 0.00 70 1011.2
20260509194534 55 138 8.0 13.0 0.00 0.00 0.00 71 1011.3
20260509193015 55 146 6.0 12.0 0.00 0.00 0.00 71 1011.8
20260509191514 54 165 5.0 14.0 0.00 0.00 0.00 71 1012.0
20260509190113 54 169 7.0 15.0 0.00 0.00 0.00 72 1012.3
20260509184554 56 173 8.0 17.0 0.00 0.00 0.00 70 1012.3
20260509183054 57 155 9.0 16.0 0.00 0.00 0.00 68 1012.1
20260509181538 57 227 5.0 12.0 0.00 0.00 0.00 64 1012.0
20260509180035 58 178 8.0 16.0 0.00 0.00 0.00 62 1012.0
20260509174516 58 201 5.0 14.0 0.00 0.00 0.00 61 1012.1
20260509173014 58 197 5.0 12.0 0.00 0.00 0.00 60 1012.2
20260509171600 58 171 6.0 10.0 0.00 0.00 0.00 59 1012.5
20260509171502 58 200 5.0 12.0 0.00 0.00 0.00 59 1012.5
20260509170108 57 130 5.0 15.0 0.00 0.00 0.00 61 1012.6
20260509164559 57 146 7.0 14.0 0.00 0.00 0.00 62 1012.7
20260509163054 56 161 5.0 13.0 0.00 0.00 0.00 63 1012.9
20260509161558 56 158 5.0 11.0 0.00 0.00 0.00 64 1013.3
20260509160051 56 161 5.0 11.0 0.00 0.00 0.00 66 1013.5
20260509154546 55 205 5.0 11.0 0.00 0.00 0.00 66 1013.6
20260509153053 55 199 6.0 12.0 0.00 0.00 0.00 65 1013.8
20260509151528 56 140 6.0 11.0 0.00 0.00 0.00 64 1014.0
20260509150034 56 197 5.0 8.0 0.00 0.00 0.00 65 1014.0
20260509144505 55 144 3.0 11.0 0.00 0.00 0.00 67 1014.2
20260509143005 55 133 6.0 10.0 0.00 0.00 0.00 65 1014.2
20260509141545 54 132 2.0 10.0 0.00 0.00 0.00 67 1014.3
20260509140048 54 173 4.0 11.0 0.00 0.00 0.00 65 1014.3
20260509134523 54 151 6.0 10.0 0.00 0.00 0.00 66 1014.3
20260509133020 53 158 6.0 14.0 0.00 0.00 0.00 67 1014.6
20260509131601 52 151 6.0 17.0 0.00 0.00 0.00 65 1014.7
20260509130058 52 146 8.0 17.0 0.00 0.00 0.00 64 1014.8
20260509124537 51 155 7.0 12.0 0.00 0.00 0.00 60 1014.7
20260509123034 51 136 7.0 12.0 0.00 0.00 0.00 57 1015.0
20260509121523 50 155 6.0 19.0 0.00 0.00 0.00 53 1014.9
20260509120011 49 136 7.0 16.0 0.00 0.00 0.00 50 1015.0
20260509114551 48 150 7.0 16.0 0.00 0.00 0.00 49 1015.2
20260509113053 47 132 9.0 14.0 0.00 0.00 0.00 50 1015.2
20260509111531 47 170 8.0 16.0 0.00 0.00 0.00 50 1015.1
20260509110031 46 157 7.0 14.0 0.00 0.00 0.00 51 1015.2
20260509104513 46 140 9.0 16.0 0.00 0.00 0.00 52 1015.1
20260509103013 45 161 9.0 15.0 0.00 0.00 0.00 53 1015.0
20260509101604 44 135 7.0 14.0 0.00 0.00 0.00 54 1014.9
20260509100054 44 143 7.0 12.0 0.00 0.00 0.00 56 1015.0
20260509094536 43 155 6.0 11.0 0.00 0.00 0.00 57 1015.1
20260509093035 43 153 4.0 9.0 0.00 0.00 0.00 57 1015.2
20260509091520 43 153 4.0 9.0 0.00 0.00 0.00 57 1015.3
20260509090016 43 155 5.0 9.0 0.00 0.00 0.00 56 1015.4
20260509084600 43 169 2.0 7.0 0.00 0.00 0.00 57 1015.5
20260509083056 43 163 4.0 9.0 0.00 0.00 0.00 57 1015.6
20260509081537 43 184 4.0 9.0 0.00 0.00 0.00 57 1015.7
20260509080038 43 146 6.0 10.0 0.00 0.00 0.00 57 1015.8
20260509074519 43 141 6.0 10.0 0.00 0.00 0.00 57 1015.7
20260509073018 43 158 4.0 11.0 0.00 0.00 0.00 57 1015.9
20260509071608 43 153 5.0 9.0 0.00 0.00 0.00 57 1015.9
20260509070100 43 155 5.0 10.0 0.00 0.00 0.00 56 1016.0
20260509064556 43 167 5.0 11.0 0.00 0.00 0.00 55 1016.0
20260509063043 43 165 6.0 13.0 0.00 0.00 0.00 53 1016.2
20260509061525 43 157 6.0 12.0 0.00 0.00 0.00 52 1016.2
20260509060023 43 165 6.0 11.0 0.00 0.00 0.00 50 1016.5
20260509054502 43 171 6.0 14.0 0.00 0.00 0.00 50 1016.6
20260509053004 43 165 4.0 11.0 0.00 0.00 0.00 52 1016.8
20260509051547 43 156 5.0 11.0 0.00 0.00 0.00 53 1016.9
20260509050044 43 166 5.0 8.0 0.00 0.00 0.00 53 1016.9
20260509044527 43 163 4.0 9.0 0.00 0.00 0.00 53 1017.1
20260509043026 42 165 3.0 7.0 0.00 0.00 0.00 54 1017.2
20260509041508 43 173 4.0 8.0 0.00 0.00 0.00 53 1017.1
20260509040007 43 186 4.0 9.0 0.00 0.00 0.00 54 1017.0
20260509034554 42 167 4.0 8.0 0.00 0.00 0.00 52 1017.0
20260509033053 43 150 5.0 10.0 0.00 0.00 0.00 49 1016.9
20260509031532 42 169 3.0 6.0 0.00 0.00 0.00 48 1017.2
20260509030032 42 163 2.0 4.0 0.00 0.00 0.00 47 1017.3
20260509024513 42 165 2.0 5.0 0.00 0.00 0.00 47 1017.5
20260509023012 42 166 3.0 5.0 0.00 0.00 0.00 47 1017.5
20260509021554 42 168 2.0 7.0 0.00 0.00 0.00 49 1017.5
20260509020054 43 194 3.0 8.0 0.00 0.00 0.00 50 1017.5
20260509014535 43 192 3.0 6.0 0.00 0.00 0.00 51 1017.4
20260509013035 43 214 2.0 4.0 0.00 0.00 0.00 52 1017.2
20260509011517 43 215 3.0 4.0 0.00 0.00 0.00 52 1016.9
20260509010020 43 219 2.0 4.0 0.00 0.00 0.00 52 1016.8
20260509004622 44 219 2.0 4.0 0.00 0.00 0.00 51 1016.6
20260509003058 45 219 1.0 4.0 0.00 0.00 0.00 51 1016.5
20260509001549 45 227 3.0 6.0 0.00 0.00 0.00 48 1016.6
20260509000041 46 215 5.0 9.0 0.00 0.00 0.00 47 1016.5
20260508234526 46 216 4.0 9.0 0.00 0.00 0.00 47 1016.3
20260508233021 47 246 4.0 9.0 0.00 0.00 0.00 48 1016.3
20260508231504 47 244 7.0 12.0 0.00 0.00 0.00 48 1016.3
20260508230002 47 252 7.0 12.0 0.00 0.00 0.00 49 1016.4
20260508224550 47 288 9.0 16.0 0.00 0.00 0.00 49 1016.5
20260508223049 47 253 10.0 15.0 0.00 0.00 0.00 50 1016.5
20260508221526 48 288 9.0 15.0 0.00 0.00 0.00 47 1016.4
20260508220029 48 255 8.0 17.0 0.00 0.00 0.00 49 1016.5
20260508214509 48 253 8.0 15.0 0.00 0.00 0.00 50 1016.4
20260508213015 47 251 11.0 17.0 0.00 0.00 0.00 51 1016.4